Weather History for Houston Hull, TX

Change the Weather History Date:

Monday, October 21, 2013

  Actual Average Record
Temperature  
Mean Temperature 70 °F -  
Max Temperature 78 °F 79 °F 92 °F (1949)
Min Temperature 63 °F 56 °F 36 °F (1976)
Cooling Degree Days 5    
Growing Degree Days 20 (Base 50)    
Moisture  
Dew Point 64 °F    
Average Humidity 78    
Maximum Humidity 93    
Minimum Humidity 64    
Precipitation  
Precipitation 0.00 in - - ()
Sea Level Pressure  
Sea Level Pressure 29.95 in    
Wind  
Wind Speed 4 mph (East)    
Max Wind Speed 9 mph    
Max Gust Speed -    
Visibility 10 miles    
Events      
Averages and records for this station are not official NWS values.
T = Trace of Precipitation, MM = Missing Value Source: NWS Daily Summary

Daily Weather History Graph

Daily Weather History Graph

Search for Another Location

Airport:

Trip Planner

Search our weather history database for the weather conditions in past years. The results will help you decide how hot, cold, wet, or windy it might be!

Date:

Astronomy

Oct. 21, 2013 Rise Set
Actual Time 7:28 AM CDT 6:45 PM CDT
Civil Twilight 7:04 AM CDT 7:09 PM CDT
Nautical Twilight 6:36 AM CDT 7:37 PM CDT
Astronomical Twilight 6:08 AM CDT 8:05 PM CDT
Moon 8:49 PM CDT (10/21) 9:54 AM CDT (10/21)
Length of Visible Light 12h 05m
Length of Day
11h 17m
Waning Gibbous, 92% of the Moon is Illuminated
Oct 21
Waning Gibbous
Oct 26
Last Quarter
Nov 3
New
Nov 9
First Quarter
Nov 17
Full

Hourly Weather History & Observations

Time (CDT) Temp. Dew Point Humidity Pressure Visibility Wind Dir Wind Speed Gust Speed Precip Events Conditions
12:53 AM 64.9 °F 61.0 °F 87% 29.97 in 10.0 mi East 3.5 mph - N/A   Clear
1:53 AM 64.0 °F 61.0 °F 90% 29.98 in 10.0 mi Calm Calm - N/A   Overcast
2:53 AM 66.0 °F 62.1 °F 87% 29.97 in 10.0 mi ESE 3.5 mph - N/A   Overcast
3:53 AM 66.0 °F 62.1 °F 87% 29.96 in 10.0 mi Calm Calm - N/A   Partly Cloudy
4:53 AM 64.9 °F 62.1 °F 90% 29.95 in 10.0 mi Calm Calm - N/A   Scattered Clouds
5:53 AM 66.0 °F 63.0 °F 90% 29.94 in 10.0 mi East 4.6 mph - N/A   Mostly Cloudy
6:53 AM 63.0 °F 61.0 °F 93% 29.95 in 8.0 mi North 3.5 mph - N/A   Scattered Clouds
7:53 AM 66.0 °F 63.0 °F 90% 29.97 in 10.0 mi Calm Calm - N/A   Overcast
8:53 AM 69.1 °F 64.9 °F 87% 29.96 in 9.0 mi ESE 4.6 mph - N/A   Scattered Clouds
9:53 AM 71.1 °F 61.0 °F 70% 29.98 in 10.0 mi ESE 3.5 mph - N/A   Overcast
10:53 AM 71.1 °F 59.0 °F 66% 29.99 in 10.0 mi SE 6.9 mph - N/A   Overcast
11:53 AM 71.1 °F 61.0 °F 70% 30.00 in 10.0 mi ESE 5.8 mph - N/A   Mostly Cloudy
12:53 PM 73.9 °F 61.0 °F 64% 29.98 in 10.0 mi ESE 8.1 mph - 0.00 in   Overcast
1:53 PM 75.9 °F 64.0 °F 67% 29.95 in 10.0 mi ESE 6.9 mph - N/A   Scattered Clouds
2:53 PM 75.9 °F 64.0 °F 67% 29.94 in 10.0 mi East 8.1 mph - N/A   Overcast
3:16 PM 75.2 °F 64.4 °F 69% 29.92 in 10.0 mi ESE 9.2 mph - N/A   Overcast
3:39 PM 77.0 °F 64.4 °F 65% 29.92 in 10.0 mi East 4.6 mph - N/A   Scattered Clouds
3:53 PM 77.0 °F 64.0 °F 64% 29.92 in 10.0 mi ESE 8.1 mph - N/A   Partly Cloudy
4:42 PM 75.2 °F 66.2 °F 73% 29.92 in 10.0 mi East 5.8 mph - N/A   Mostly Cloudy
4:53 PM 75.9 °F 66.0 °F 71% 29.93 in 10.0 mi East 5.8 mph - N/A   Overcast
5:03 PM 75.2 °F 66.2 °F 73% 29.91 in 10.0 mi ESE 6.9 mph - N/A   Overcast
5:53 PM 75.9 °F 66.0 °F 71% 29.92 in 10.0 mi ESE 8.1 mph - N/A   Partly Cloudy
6:53 PM 73.0 °F 66.0 °F 79% 29.93 in 10.0 mi East 4.6 mph - N/A   Clear
7:53 PM 72.0 °F 66.0 °F 81% 29.95 in 10.0 mi ESE 5.8 mph - N/A   Clear
8:53 PM 71.1 °F 66.0 °F 84% 29.96 in 10.0 mi ESE 5.8 mph - N/A   Partly Cloudy
9:53 PM 71.1 °F 66.0 °F 84% 29.98 in 10.0 mi NE 4.6 mph - N/A   Partly Cloudy
10:53 PM 69.1 °F 64.9 °F 87% 29.99 in 10.0 mi NNE 5.8 mph - N/A   Clear
11:53 PM 66.0 °F 63.0 °F 90% 29.99 in 10.0 mi North 3.5 mph - N/A   Partly Cloudy